Flag for Botswana Weather past 2 weeks in Francistown, Botswana

Now
77 °F

Partly sunny.


Feels Like: 79 °F
Forecast: 65 / 89 °F
Wind: 2 mph from North

Location: Francistown Airport

Current Time: Dec 18, 2014 at 12:32:12 PM

Latest Report: Dec 18, 2014 at 11:00 AM


Visibility: N/A

Pressure: 30.04 "Hg

Humidity: 69%

Dew point: 66 °F

Location of FrancistownLocation

Historic Weather in Francistown — Graph

°F

Francistown temperature yesterday

Maximum temperature yesterday: 79 °F (at 4:00 PM)
Minimum temperature yesterday: 68 °F (at 3:00 AM)
Average temperature yesterday: 72 °F

Past Weeks' High & Low Weather Summary

 TemperatureHumidityPressure
High99 °F (Dec 5, 1:00 PM)100% (Dec 10, 4:00 AM)30.15 "Hg (Dec 10, 4:00 AM)
Low43 °F (Dec 3, 4:00 PM)12% (Dec 5, 4:00 PM)29.89 "Hg (Dec 9, 5:00 PM)
Average74 °F67%30.02 "Hg
* Reported Dec 3 11:00 AM — Dec 18 11:00 AM, Francistown, Weather by CustomWeather, © 2014

Note: Actual official high and low records may vary slightly from our data, if they occured in-between our weather recording intervals... More about our weather records

Advertising

Francistown weather history for previous 24 hours

 ConditionsComfort  
Time TempWeatherWind HumidityBarometerVisibility
11:00 AM
Dec 18
77 °FPartly sunny.2 mph69%30.04 "HgN/A
10:00 AM73 °FPartly sunny.6 mph78%30.04 "HgN/A
9:00 AM72 °FOvercast.6 mph83%30.04 "HgN/A
8:00 AM70 °FLow clouds.9 mph88%30.04 "HgN/A
7:00 AM68 °FLow clouds.12 mph94%30.04 "HgN/A
6:00 AM68 °FLow clouds.9 mph94%30.01 "HgN/A
5:00 AM68 °FBroken clouds.8 mph94%29.98 "HgN/A
4:00 AM68 °FPassing clouds.5 mph94%29.98 "HgN/A
3:00 AM68 °FOvercast.10 mph94%30.01 "HgN/A
1:00 AM68 °FLight rain. Overcast.5 mph94%30.07 "HgN/A
12:00 AM68 °FOvercast.8 mph94%30.07 "HgN/A
11:00 PM
Dec 17
68 °FOvercast.9 mph94%30.07 "HgN/A
10:00 PM70 °FPassing clouds.12 mph88%30.07 "HgN/A
9:00 PM70 °FOvercast.10 mph88%30.04 "HgN/A
7:00 PM72 °FPassing clouds.13 mph83%30.01 "HgN/A
6:00 PM73 °FPassing clouds.14 mph78%29.98 "HgN/A
5:00 PM73 °FPartly sunny.14 mph78%29.98 "HgN/A
4:00 PM79 °FScattered clouds.14 mph70%29.95 "HgN/A
3:00 PM75 °FScattered clouds.14 mph78%29.98 "HgN/A
2:00 PM75 °FPartly sunny.14 mph78%29.98 "HgN/A
1:00 PM77 °FPartly sunny.14 mph79%30.01 "HgN/A
12:00 PM75 °FPartly sunny.15 mph78%30.04 "HgN/A
Weather by CustomWeather, © 2014

See weather overviewHow to use our weather pages